Regional Weather Roundup
Issued by NWS Sterling, VA

Home | Current Version | Previous Version | Graphics & Text | Print | Product List | Glossary On
Versions: 1 2 3 4 5 6 7 8 9 10 11 12 13 14 15 16 17 18 19 20 21 22 23 24 25 26 27 28 29 30 31 32 33 34 35 36 37 38 39 40 41 42 43 44 45 46 47 48 49 50
669
ASUS41 KLWX 312010
RWRLWX

REGIONAL WEATHER ROUNDUP
NATIONAL WEATHER SERVICE BALTIMORE MD/WASHINGTON DC
400 PM EDT TUE MAY 31 2016

Note: "FAIR" indicates few or no clouds below 12,000 feet
with no significant weather and/or obstructions to visibility.
 TC=TEMPERATURE CELSIUS

 * =Non NWS site. Station does not report precipitation (e.g. rain,
    snow, etc.), thunder, or fog.

DCZ001-MDZ009-015-VAZ040>042-051-053>054-312100-
WASHINGTON METRO

CITY           SKY/WX    TMP DP  RH WIND       PRES   REMARKS
WASHINGTON NAT FAIR      84  64  50 CALM      29.94F
DULLES         PTSUNNY   86  59  39 NE8       29.95F
ANDREWS AFB    SUNNY     82  68  61 E6        29.94F
FT BELVOIR     PTSUNNY   80  69  67 CALM      29.94F
QUANTICO       PTSUNNY   82  70  66 S6        29.95F
LEESBURG*      PTSUNNY   88  59  37 N3        29.97S
MANASSAS*      PTSUNNY   88  63  42 MISG      29.95F

$$

MDZ006>007-011-014-312100-
BALTIMORE METRO

CITY           SKY/WX    TMP DP  RH WIND       PRES   REMARKS
BWI AIRPORT    PTSUNNY   83  64  52 E6        29.94F
MD SCIENCE CTR   N/A     85  64  49 MISG      29.94F
MARTIN STATE   MOSUNNY   84  68  58 SE5       29.95F
ANNAPOLIS      SUNNY     78  70  76 SE8       29.95F
FORT MEADE*    PTSUNNY   81  64  57 E3        29.97F

$$

MDZ012-015-019>023-312100-
MARYLAND EASTERN SHORE

CITY           SKY/WX    TMP DP  RH WIND       PRES   REMARKS
OCEAN CITY     SUNNY     73  68  84 SE7       29.96F
SALISBURY      PTSUNNY   84  67  56 CALM      29.93F
CAMBRIDGE*     SUNNY     81  64  57 N5        29.94F
EASTON*        PTSUNNY   84  73  70 NW5       29.98F HX  91

$$

MDZ017>025-312100-
SOUTHERN MARYLAND

CITY           SKY/WX    TMP DP  RH WIND       PRES   REMARKS
PATUXENT RIVER MOSUNNY   80  66  62 SE7       29.95F
ST INIGOES     PTSUNNY   81  69  67 SE6       29.95F
LEONARDTOWN*   MOSUNNY   81  64  57 CALM      29.97F

$$

MDZ003>005-312100-
NORTH CENTRAL MARYLAND

CITY           SKY/WX    TMP DP  RH WIND       PRES   REMARKS
FREDERICK*     PTSUNNY   86  57  37 CALM      29.98F
HAGERSTOWN APT MOSUNNY   85  54  34 NW3       29.96F
WESTMINSTER*   MOSUNNY   84  73  70 CALM      29.98F HX  91

$$

MDZ501>502-312100-
WESTERN MARYLAND

CITY           SKY/WX    TMP DP  RH WIND       PRES   REMARKS
OAKLAND*       CLOUDY    73  50  43 NW3       30.08F
CUMBERLAND*    CLOUDY    84  61  45 S5        30.00F

$$

VAZ025>031-312100-
SHENANDOAH VALLEY

CITY           SKY/WX    TMP DP  RH WIND       PRES   REMARKS
WINCHESTER*    FAIR      86  55  35 E6        29.97F
FRONT ROYAL*   FAIR      82  59  44 CALM      29.97F
LURAY*         FAIR      84  59  42 N3        29.98S
NEW MARKET*    FAIR     N/A N/A N/A NE8       29.96S
STAUNTON*      FAIR      83  56  40 N7        30.00F
WAYNESBORO*    FAIR      82  62  51 NE6       30.00F

$$

WVZ021-048>050-054>055-312100-
EASTERN WEST VIRGINIA PANHANDLE

CITY           SKY/WX    TMP DP  RH WIND       PRES   REMARKS
MARTINSBURG    FAIR      84  54  35 S3        29.96F
PETERSBURG*    FAIR      86  56  36 CALM      29.99S

$$

VAZ036>039-050-312100-
CENTRAL FOOTHILLS

CITY           SKY/WX    TMP DP  RH WIND       PRES   REMARKS
CHARLOTTESVILL PTSUNNY   86  63  45 E12       29.96F
CULPEPER*      PTSUNNY   85  61  44 CALM      29.96F
ORANGE*        FAIR      86  64  48 NE8       29.97F
GORDONSVILLE*  FAIR      84  67  57 CALM      29.95F
WARRENTON*     FAIR      86  51  29 N7        29.95F

$$

VAZ055>057-312100-
NORTH AND CENTRAL PIEDMONT

CITY           SKY/WX    TMP DP  RH WIND       PRES   REMARKS
FREDERICKSBRG* FAIR      86  67  52 E5        29.94F
STAFFORD*      FAIR      84  64  50 SE3       29.99F

$$

NCZ024-NYZ072-PAZ021-071-VAZ022-071-312100-
OTHER REGIONAL OBSERVATIONS

CITY           SKY/WX    TMP DP  RH WIND       PRES   REMARKS
NEW YORK CITY  MOSUNNY   80  61  52 VRB7      29.94F
PHILADELPHIA   MOSUNNY   87  51  28 VRB6      29.93F
PITTSBURGH     CLOUDY    86  54  33 W7        29.98F
ROANOKE        PTSUNNY   84  64  50 E7        29.99F
RICHMOND       PTSUNNY   82  67  60 E8        29.95F
RALEIGH        PTSUNNY   83  67  58 NE10G17   29.93F

$$

ANZ530>537-312100-
MARINE OBSERVATIONS

STATION/POSITION TIME  TEMP    WIND        PRES
                       AIR SEA DIR/SP/G
                 (UTC) (F)     (DEG/KT/KT) (MB)
THOMAS PT LIGHT  2000   77 70  190/  5/  5 1015.4F
BALT KEY BRIDGE  1900   78     130/  6/  7 1014.2F
COVE POINT       1900   74     190/  1/  2 1015.3F
LEWISETTA        1900   74 74  120/  3/  3 1014.6F
SOLOMONS ISLAND  1900   73 67   90/  6/  8   N/A
PINEY POINT      1900          190/  8/  8   N/A

$$





USA.gov is the U.S. government's official web portal to all federal, state and local government web resources and services.